Retour au catalogue

STARLINK-37248

ActifCommunicationsVLEO
NORAD 68527·PAYLOAD·🇺🇸 United States

Lancé Mar 30, 2026 depuis Cape Canaveral Space Force Station

Loading…

Prochains Passages (prochaines 24 heures)

TLE

FraisSource: CelesTrak SupGP

Époque: Sep 15, 2026, 03:12 UTC

1 68527C 26068V   26258.13381944  .00055589  00000+0  16418-2 0  2587
2 68527  53.1580 322.5769 0001156  92.2580 272.4902 15.34374524    10

Suivez STARLINK-37248 en temps réel avec AllMySat

Download on the App Store